Time,TemperatureF,DewpointF,PressureIn,WindDirection,WindDirectionDegrees,WindSpeedMPH,WindSpeedGustMPH,Humidity,HourlyPrecipIn,Conditions,Clouds,dailyrainin,SoftwareType,DateUTC
2013-01-21 00:12:00,20.4,13.0,30.22,WNW,298,4.0,-999.0,73,-99.99,,,0.00,weatherlink.com 1.10,2013-01-21 05:12:00,
2013-01-21 00:27:00,20.3,13.0,30.21,West,273,4.0,-999.0,74,-99.99,,,0.00,weatherlink.com 1.10,2013-01-21 05:27:00,
2013-01-21 00:42:00,20.3,13.0,30.21,West,281,6.0,-999.0,74,-99.99,,,0.00,weatherlink.com 1.10,2013-01-21 05:42:00,
2013-01-21 00:57:00,20.3,14.0,30.20,WSW,249,3.0,-999.0,75,-99.99,,,0.00,weatherlink.com 1.10,2013-01-21 05:57:00,
2013-01-21 01:12:00,20.1,13.0,30.20,West,275,3.0,-999.0,75,-99.99,,,0.00,weatherlink.com 1.10,2013-01-21 06:12:00,
2013-01-21 01:27:00,20.0,14.0,30.19,WNW,296,9.0,-999.0,76,-99.99,,,0.00,weatherlink.com 1.10,2013-01-21 06:27:00,
2013-01-21 01:42:00,19.9,14.0,30.19,West,281,6.0,-999.0,77,-99.99,,,0.00,weatherlink.com 1.10,2013-01-21 06:42:00,
2013-01-21 01:57:00,19.7,14.0,30.19,NW,315,5.0,-999.0,77,-99.99,,,0.00,weatherlink.com 1.10,2013-01-21 06:57:00,
2013-01-21 02:12:00,19.6,14.0,30.20,WNW,291,8.0,-999.0,77,-99.99,,,0.00,weatherlink.com 1.10,2013-01-21 07:12:00,
2013-01-21 02:27:00,19.5,14.0,30.20,West,277,3.0,-999.0,78,-99.99,,,0.00,weatherlink.com 1.10,2013-01-21 07:27:00,
2013-01-21 02:42:00,19.5,14.0,30.20,NW,311,6.0,-999.0,78,-99.99,,,0.00,weatherlink.com 1.10,2013-01-21 07:42:00,
2013-01-21 02:57:00,19.6,14.0,30.20,West,267,7.0,-999.0,79,-99.99,,,0.00,weatherlink.com 1.10,2013-01-21 07:57:00,
2013-01-21 03:12:00,19.3,14.0,30.19,NW,318,3.0,-999.0,79,-99.99,,,0.00,weatherlink.com 1.10,2013-01-21 08:12:00,
2013-01-21 03:27:00,19.0,14.0,30.20,West,275,6.0,-999.0,79,-99.99,,,0.00,weatherlink.com 1.10,2013-01-21 08:27:00,
2013-01-21 03:42:00,18.7,13.0,30.20,West,281,6.0,-999.0,77,-99.99,,,0.00,weatherlink.com 1.10,2013-01-21 08:42:00,
2013-01-21 03:57:00,18.3,12.0,30.19,NW,305,6.0,-999.0,77,-99.99,,,0.00,weatherlink.com 1.10,2013-01-21 08:57:00,
2013-01-21 04:12:00,18.1,12.0,30.18,WNW,284,9.0,-999.0,77,-99.99,,,0.00,weatherlink.com 1.10,2013-01-21 09:12:00,
2013-01-21 04:27:00,17.9,12.0,30.18,WNW,290,10.0,-999.0,77,-99.99,,,0.00,weatherlink.com 1.10,2013-01-21 09:27:00,
2013-01-21 04:42:00,17.9,12.0,30.18,WNW,303,7.0,-999.0,79,-99.99,,,0.00,weatherlink.com 1.10,2013-01-21 09:42:00,
2013-01-21 04:57:00,17.7,12.0,30.17,NW,306,4.0,-999.0,79,-99.99,,,0.00,weatherlink.com 1.10,2013-01-21 09:57:00,
2013-01-21 05:12:00,17.5,13.0,30.17,NNW,328,6.0,-999.0,82,-99.99,,,0.00,weatherlink.com 1.10,2013-01-21 10:12:00,
2013-01-21 05:27:00,17.6,13.0,30.17,NW,307,5.0,-999.0,83,-99.99,,,0.00,weatherlink.com 1.10,2013-01-21 10:27:00,
2013-01-21 05:42:00,17.7,13.0,30.17,WNW,291,7.0,-999.0,83,-99.99,,,0.00,weatherlink.com 1.10,2013-01-21 10:42:00,
2013-01-21 05:57:00,17.4,13.0,30.18,West,264,7.0,-999.0,84,-99.99,,,0.00,weatherlink.com 1.10,2013-01-21 10:57:00,
2013-01-21 06:12:00,16.8,12.0,30.18,WNW,303,8.0,-999.0,81,-99.99,,,0.00,weatherlink.com 1.10,2013-01-21 11:12:00,
2013-01-21 06:27:00,16.7,12.0,30.18,NW,311,3.0,-999.0,81,-99.99,,,0.00,weatherlink.com 1.10,2013-01-21 11:27:00,
2013-01-21 06:42:00,16.4,11.0,30.18,West,267,7.0,-999.0,80,-99.99,,,0.00,weatherlink.com 1.10,2013-01-21 11:42:00,
2013-01-21 06:57:00,16.2,11.0,30.19,West,260,10.0,-999.0,78,-99.99,,,0.00,weatherlink.com 1.10,2013-01-21 11:57:00,
2013-01-21 07:12:00,15.8,10.0,30.19,West,273,10.0,-999.0,79,-99.99,,,0.00,weatherlink.com 1.10,2013-01-21 12:12:00,
2013-01-21 07:27:00,15.7,10.0,30.18,West,271,6.0,-999.0,77,-99.99,,,0.00,weatherlink.com 1.10,2013-01-21 12:27:00,
2013-01-21 07:42:00,15.9,10.0,30.18,West,280,6.0,-999.0,78,-99.99,,,0.00,weatherlink.com 1.10,2013-01-21 12:42:00,
2013-01-21 07:57:00,15.6,11.0,30.18,WNW,295,9.0,-999.0,80,-99.99,,,0.00,weatherlink.com 1.10,2013-01-21 12:57:00,
2013-01-21 08:12:00,15.0,10.0,30.17,NW,325,6.0,-999.0,80,-99.99,,,0.00,weatherlink.com 1.10,2013-01-21 13:12:00,
2013-01-21 08:28:00,14.9,10.0,30.18,West,269,4.0,-999.0,81,-99.99,,,0.00,weatherlink.com 1.10,2013-01-21 13:28:00,
2013-01-21 08:43:00,14.9,10.0,30.18,WSW,243,4.0,-999.0,82,-99.99,,,0.00,weatherlink.com 1.10,2013-01-21 13:43:00,
2013-01-21 08:58:00,14.9,11.0,30.19,West,260,5.0,-999.0,83,-99.99,,,0.00,weatherlink.com 1.10,2013-01-21 13:58:00,
2013-01-21 09:13:00,14.6,11.0,30.18,WNW,301,3.0,-999.0,86,-99.99,,,0.00,weatherlink.com 1.10,2013-01-21 14:13:00,
2013-01-21 09:28:00,14.4,11.0,30.19,West,274,9.0,-999.0,87,-99.99,,,0.00,weatherlink.com 1.10,2013-01-21 14:28:00,
2013-01-21 09:43:00,14.7,11.0,30.19,WNW,291,12.0,-999.0,84,-99.99,,,0.00,weatherlink.com 1.10,2013-01-21 14:43:00,
2013-01-21 09:58:00,14.8,9.0,30.19,West,278,10.0,-999.0,78,-99.99,,,0.00,weatherlink.com 1.10,2013-01-21 14:58:00,
2013-01-21 10:13:00,14.7,10.0,30.20,WNW,289,9.0,-999.0,81,-99.99,,,0.00,weatherlink.com 1.10,2013-01-21 15:13:00,
2013-01-21 10:28:00,14.6,10.0,30.20,West,259,13.0,-999.0,81,-99.99,,,0.00,weatherlink.com 1.10,2013-01-21 15:28:00,
2013-01-21 10:43:00,14.5,10.0,30.20,West,279,14.0,-999.0,81,-99.99,,,0.00,weatherlink.com 1.10,2013-01-21 15:43:00,
2013-01-21 10:58:00,13.2,10.0,30.21,West,273,8.0,-999.0,87,-99.99,,,0.00,weatherlink.com 1.10,2013-01-21 15:58:00,
2013-01-21 11:13:00,14.1,9.0,30.21,WNW,282,10.0,-999.0,80,-99.99,,,0.00,weatherlink.com 1.10,2013-01-21 16:13:00,
2013-01-21 11:28:00,14.1,8.0,30.21,WSW,250,11.0,-999.0,75,-99.99,,,0.00,weatherlink.com 1.10,2013-01-21 16:28:00,
2013-01-21 11:43:00,14.1,7.0,30.21,WNW,290,10.0,-999.0,72,-99.99,,,0.00,weatherlink.com 1.10,2013-01-21 16:43:00,
2013-01-21 11:58:00,13.8,6.0,30.21,WNW,300,16.0,-999.0,71,-99.99,,,0.00,weatherlink.com 1.10,2013-01-21 16:58:00,
2013-01-21 12:13:00,13.9,6.0,30.21,West,279,13.0,-999.0,72,-99.99,,,0.00,weatherlink.com 1.10,2013-01-21 17:13:00,
2013-01-21 12:28:00,13.6,6.0,30.21,West,267,5.0,-999.0,71,-99.99,,,0.00,weatherlink.com 1.10,2013-01-21 17:28:00,
2013-01-21 12:43:00,14.0,5.0,30.20,WNW,284,13.0,-999.0,67,-99.99,,,0.00,weatherlink.com 1.10,2013-01-21 17:43:00,
2013-01-21 12:58:00,14.2,6.0,30.20,WNW,290,14.0,-999.0,70,-99.99,,,0.00,weatherlink.com 1.10,2013-01-21 17:58:00,
2013-01-21 13:13:00,13.4,6.0,30.20,WNW,289,14.0,-999.0,73,-99.99,,,0.00,weatherlink.com 1.10,2013-01-21 18:13:00,
2013-01-21 13:29:00,13.1,6.0,30.20,West,267,10.0,-999.0,73,-99.99,,,0.00,weatherlink.com 1.10,2013-01-21 18:29:00,
2013-01-21 13:44:00,13.1,7.0,30.20,West,274,13.0,-999.0,77,-99.99,,,0.00,weatherlink.com 1.10,2013-01-21 18:44:00,
2013-01-21 13:59:00,12.3,6.0,30.21,West,271,7.0,-999.0,77,-99.99,,,0.00,weatherlink.com 1.10,2013-01-21 18:59:00,
2013-01-21 14:14:00,13.1,2.0,30.22,WSW,255,11.0,-999.0,61,-99.99,,,0.00,weatherlink.com 1.10,2013-01-21 19:14:00,
2013-01-21 14:29:00,12.7,2.0,30.22,West,271,15.0,-999.0,63,-99.99,,,0.00,weatherlink.com 1.10,2013-01-21 19:29:00,
2013-01-21 14:44:00,12.7,2.0,30.22,WNW,290,4.0,-999.0,63,-99.99,,,0.00,weatherlink.com 1.10,2013-01-21 19:44:00,
2013-01-21 14:59:00,13.4,3.0,30.23,NW,304,18.0,-999.0,64,-99.99,,,0.00,weatherlink.com 1.10,2013-01-21 19:59:00,
2013-01-21 15:14:00,12.7,1.0,30.23,West,281,10.0,-999.0,59,-99.99,,,0.00,weatherlink.com 1.10,2013-01-21 20:14:00,
2013-01-21 15:29:00,12.9,1.0,30.23,West,268,13.0,-999.0,58,-99.99,,,0.00,weatherlink.com 1.10,2013-01-21 20:29:00,
2013-01-21 15:44:00,13.6,0.0,30.23,WSW,253,12.0,-999.0,56,-99.99,,,0.00,weatherlink.com 1.10,2013-01-21 20:44:00,
2013-01-21 15:59:00,13.6,-1.0,30.24,WNW,288,9.0,-999.0,53,-99.99,,,0.00,weatherlink.com 1.10,2013-01-21 20:59:00,
2013-01-21 16:14:00,13.5,0.0,30.24,WSW,257,12.0,-999.0,54,-99.99,,,0.00,weatherlink.com 1.10,2013-01-21 21:14:00,
2013-01-21 16:29:00,13.6,0.0,30.24,West,271,10.0,-999.0,56,-99.99,,,0.00,weatherlink.com 1.10,2013-01-21 21:29:00,
2013-01-21 16:44:00,13.6,0.0,30.24,WNW,294,8.0,-999.0,55,-99.99,,,0.00,weatherlink.com 1.10,2013-01-21 21:44:00,
2013-01-21 17:00:00,13.3,-1.0,30.25,WNW,299,7.0,-999.0,54,-99.99,,,0.00,weatherlink.com 1.10,2013-01-21 22:00:00,
2013-01-21 17:15:00,12.8,-1.0,30.25,NW,306,7.0,-999.0,54,-99.99,,,0.00,weatherlink.com 1.10,2013-01-21 22:15:00,
2013-01-21 17:30:00,12.7,-1.0,30.25,West,275,10.0,-999.0,55,-99.99,,,0.00,weatherlink.com 1.10,2013-01-21 22:30:00,
2013-01-21 17:45:00,12.0,-1.0,30.25,West,262,7.0,-999.0,55,-99.99,,,0.00,weatherlink.com 1.10,2013-01-21 22:45:00,
2013-01-21 18:00:00,11.7,-1.0,30.26,West,265,14.0,-999.0,57,-99.99,,,0.00,weatherlink.com 1.10,2013-01-21 23:00:00,
2013-01-21 18:15:00,11.4,-1.0,30.26,West,279,10.0,-999.0,58,-99.99,,,0.00,weatherlink.com 1.10,2013-01-21 23:15:00,
2013-01-21 18:30:00,11.3,-1.0,30.26,WNW,299,6.0,-999.0,59,-99.99,,,0.00,weatherlink.com 1.10,2013-01-21 23:30:00,
2013-01-21 18:45:00,11.2,-1.0,30.27,WNW,292,8.0,-999.0,58,-99.99,,,0.00,weatherlink.com 1.10,2013-01-21 23:45:00,
2013-01-21 19:00:00,11.2,0.0,30.27,West,271,5.0,-999.0,60,-99.99,,,0.00,weatherlink.com 1.10,2013-01-22 00:00:00,
2013-01-21 19:15:00,11.2,-1.0,30.27,WSW,257,5.0,-999.0,59,-99.99,,,0.00,weatherlink.com 1.10,2013-01-22 00:15:00,
2013-01-21 19:30:00,11.1,0.0,30.27,West,274,8.0,-999.0,60,-99.99,,,0.00,weatherlink.com 1.10,2013-01-22 00:30:00,
2013-01-21 19:45:00,11.0,-1.0,30.27,West,267,10.0,-999.0,60,-99.99,,,0.00,weatherlink.com 1.10,2013-01-22 00:45:00,
2013-01-21 20:00:00,10.9,-1.0,30.27,WSW,248,10.0,-999.0,60,-99.99,,,0.00,weatherlink.com 1.10,2013-01-22 01:00:00,
2013-01-21 20:16:00,10.8,0.0,30.28,West,274,8.0,-999.0,61,-99.99,,,0.00,weatherlink.com 1.10,2013-01-22 01:16:00,
2013-01-21 20:31:00,10.7,-1.0,30.28,West,275,9.0,-999.0,60,-99.99,,,0.00,weatherlink.com 1.10,2013-01-22 01:31:00,
2013-01-21 20:46:00,10.5,-1.0,30.28,West,281,8.0,-999.0,61,-99.99,,,0.00,weatherlink.com 1.10,2013-01-22 01:46:00,
2013-01-21 21:01:00,10.4,0.0,30.29,WNW,293,7.0,-999.0,62,-99.99,,,0.00,weatherlink.com 1.10,2013-01-22 02:01:00,
2013-01-21 21:16:00,10.2,0.0,30.29,WNW,283,7.0,-999.0,63,-99.99,,,0.00,weatherlink.com 1.10,2013-01-22 02:16:00,
2013-01-21 21:31:00,10.0,0.0,30.30,WNW,300,4.0,-999.0,63,-99.99,,,0.00,weatherlink.com 1.10,2013-01-22 02:31:00,
2013-01-21 21:46:00,9.9,-1.0,30.30,West,278,9.0,-999.0,63,-99.99,,,0.00,weatherlink.com 1.10,2013-01-22 02:46:00,
2013-01-21 22:01:00,9.8,-1.0,30.31,WNW,284,6.0,-999.0,63,-99.99,,,0.00,weatherlink.com 1.10,2013-01-22 03:01:00,
2013-01-21 22:16:00,9.6,0.0,30.31,WNW,286,15.0,-999.0,64,-99.99,,,0.00,weatherlink.com 1.10,2013-01-22 03:16:00,
2013-01-21 22:31:00,9.2,-1.0,30.31,West,269,10.0,-999.0,63,-99.99,,,0.00,weatherlink.com 1.10,2013-01-22 03:31:00,
2013-01-21 22:46:00,9.0,-1.0,30.31,West,280,9.0,-999.0,65,-99.99,,,0.00,weatherlink.com 1.10,2013-01-22 03:46:00,
2013-01-21 23:01:00,8.7,-1.0,30.32,WNW,287,9.0,-999.0,65,-99.99,,,0.00,weatherlink.com 1.10,2013-01-22 04:01:00,
2013-01-21 23:16:00,8.5,-1.0,30.32,NW,308,7.0,-999.0,66,-99.99,,,0.00,weatherlink.com 1.10,2013-01-22 04:16:00,
2013-01-21 23:31:00,8.5,-1.0,30.32,West,266,6.0,-999.0,66,-99.99,,,0.00,weatherlink.com 1.10,2013-01-22 04:31:00,
2013-01-21 23:47:00,8.3,-1.0,30.32,NW,314,5.0,-999.0,67,-99.99,,,0.00,weatherlink.com 1.10,2013-01-22 04:47:00,